Back to catalog

SL-6 DEB

LostHEO
NORAD 18598·DEBRIS·🇷🇺 Russia

Launched Sep 11, 1981 from Plesetsk Cosmodrome

Loading…

Next Passes (next 24 hours)

TLE

StaleSource: Space-Track

Epoch: Oct 7, 2021, 02:11 UTC

1 18598U 81088N   21280.09150914  .00012743  00000-0  69934-3 0  9999
2 18598  62.8260 107.0671 4936798 258.0743  44.6414  5.80179780818087

Track SL-6 DEB in real time with AllMySat

Download on the App Store